Location: Casteau
(50.5142°N, 4.0161°E)
Time: 06:24:17
(UTC+00:00)

Cosmos 1975 - Pass Details

Date: 18 September 2020
Orbit: 540 x 563 km, 82.5° (Epoch: 27 October)

Event Time Altitude Azimuth Distance (km) Brightness Sun altitude
Rises 18:44:49 0° 193° (SSW) 2,744 6.4 -9.4°
Reaches altitude 10° 18:46:59 10° 195° (SSW) 1,853 5.5 -9.7°
Maximum altitude 18:51:04 75° 280° (W) 589 3.1 -10.4°
Drops below altitude 10° 18:55:10 10° 7° (N) 1,863 5.6 -11.0°
Sets 18:57:22 0° 9° (N) 2,761 6.5 -11.3°
